DAL1510 KMIA-KATL

Flight info

Callsign DAL1510
Flight time 1h 32m
Altitude 40000
Route FLMGO2 STYMY Q77 MJAMS/N0472F410 Q77 SHRKS/N0471F400 LAIRI LARZZ JJEDI4
Aircraft MD11/H-SDE1E2E3FGHIJ2J3J4J5M1RWXY/LB1D1

Departure

Time 2026-05-06 18:28
Airport Miami International Airport (KMIA)

Arrival

Time 2026-05-06 20:00
Airport Hartsfield Jackson Atlanta International Airport (KATL)
Time Latitude Longitude Altitude Speed Heading
2026-05-06 18:04 25.79120 -80.27601 23 ft 0 kts 267°
2026-05-06 18:15 25.79121 -80.27577 23 ft 3 kts 267°
2026-05-06 18:15 25.79122 -80.27556 25 ft 4 kts 240°
2026-05-06 18:16 25.79132 -80.27544 23 ft 4 kts 185°
2026-05-06 18:16 25.79151 -80.27543 23 ft 1 kts 177°
2026-05-06 18:16 25.79125 -80.27542 23 ft 4 kts 177°
2026-05-06 18:16 25.79098 -80.27540 26 ft 4 kts 177°
2026-05-06 18:17 25.79071 -80.27539 23 ft 4 kts 177°
2026-05-06 18:17 25.79044 -80.27538 23 ft 3 kts 177°
2026-05-06 18:17 25.79041 -80.27537 23 ft 0 kts 177°
2026-05-06 18:20 25.79038 -80.27537 22 ft 1 kts 177°
2026-05-06 18:20 25.79029 -80.27537 23 ft 2 kts 177°
2026-05-06 18:20 25.79011 -80.27536 26 ft 3 kts 177°
2026-05-06 18:20 25.78982 -80.27535 23 ft 5 kts 177°
2026-05-06 18:21 25.78943 -80.27534 23 ft 6 kts 184°
2026-05-06 18:21 25.78910 -80.27555 23 ft 5 kts 227°
2026-05-06 18:21 25.78896 -80.27595 23 ft 7 kts 253°
2026-05-06 18:21 25.78883 -80.27656 25 ft 10 kts 262°
2026-05-06 18:22 25.78877 -80.27743 23 ft 13 kts 266°
2026-05-06 18:22 25.78872 -80.27852 23 ft 15 kts 267°
2026-05-06 18:22 25.78887 -80.27972 27 ft 17 kts 295°
2026-05-06 18:22 25.78946 -80.28093 24 ft 19 kts 299°
2026-05-06 18:23 25.79015 -80.28230 25 ft 21 kts 300°
2026-05-06 18:23 25.79090 -80.28375 23 ft 22 kts 299°
2026-05-06 18:23 25.79176 -80.28511 26 ft 22 kts 301°
2026-05-06 18:23 25.79247 -80.28652 24 ft 21 kts 299°
2026-05-06 18:24 25.79319 -80.28792 23 ft 21 kts 300°
2026-05-06 18:24 25.79389 -80.28929 27 ft 20 kts 298°
2026-05-06 18:24 25.79458 -80.29063 22 ft 20 kts 300°
2026-05-06 18:24 25.79525 -80.29194 23 ft 19 kts 300°
2026-05-06 18:25 25.79590 -80.29321 25 ft 19 kts 300°
2026-05-06 18:25 25.79654 -80.29449 25 ft 19 kts 298°
2026-05-06 18:25 25.79718 -80.29575 22 ft 19 kts 300°
2026-05-06 18:25 25.79783 -80.29700 24 ft 19 kts 300°
2026-05-06 18:26 25.79848 -80.29825 22 ft 19 kts 300°
2026-05-06 18:26 25.79911 -80.29949 21 ft 18 kts 300°
2026-05-06 18:26 25.79974 -80.30072 21 ft 18 kts 299°
2026-05-06 18:26 25.80034 -80.30125 23 ft 6 kts
2026-05-06 18:27 25.80065 -80.30093 23 ft 7 kts 61°
2026-05-06 18:27 25.80075 -80.30028 20 ft 14 kts 85°
2026-05-06 18:27 25.80093 -80.29590 21 ft 112 kts 87°
2026-05-06 18:27 25.80143 -80.28415 271 ft 176 kts 87°
2026-05-06 18:28 25.80228 -80.27124 1752 ft 156 kts 85°
2026-05-06 18:28 25.80288 -80.25940 3324 ft 154 kts 88°
2026-05-06 18:28 25.80341 -80.24597 4083 ft 201 kts 87°
2026-05-06 18:28 25.80412 -80.22865 4250 ft 245 kts 87°
2026-05-06 18:29 25.80493 -80.20859 4769 ft 266 kts 85°
2026-05-06 18:29 25.80848 -80.18832 5879 ft 270 kts 68°
2026-05-06 18:29 25.81871 -80.17080 6989 ft 274 kts 42°
2026-05-06 18:29 25.83524 -80.16034 8067 ft 279 kts 14°
2026-05-06 18:30 25.85462 -80.15725 9067 ft 285 kts
2026-05-06 18:30 25.87464 -80.15649 10130 ft 291 kts
2026-05-06 18:30 25.89582 -80.15784 10464 ft 324 kts 349°
2026-05-06 18:30 25.91876 -80.16431 10838 ft 350 kts 342°
2026-05-06 18:31 25.94208 -80.17269 11938 ft 355 kts 342°
2026-05-06 18:31 25.96532 -80.18133 13088 ft 357 kts 342°
2026-05-06 18:31 25.98842 -80.19180 14129 ft 360 kts 331°
2026-05-06 18:31 26.00902 -80.20785 15188 ft 364 kts 322°
2026-05-06 18:32 26.02822 -80.22645 16177 ft 368 kts 319°
2026-05-06 18:32 26.04708 -80.24594 17170 ft 371 kts 319°
2026-05-06 18:32 26.06603 -80.26568 18099 ft 375 kts 319°
2026-05-06 18:32 26.08526 -80.28556 19018 ft 378 kts 319°
2026-05-06 18:33 26.10475 -80.30546 19845 ft 383 kts 319°
2026-05-06 18:33 26.12461 -80.32562 20642 ft 388 kts 319°
2026-05-06 18:33 26.14469 -80.34591 21413 ft 393 kts 319°
2026-05-06 18:33 26.16504 -80.36643 22171 ft 398 kts 319°
2026-05-06 18:34 26.18574 -80.38728 22896 ft 402 kts 318°
2026-05-06 18:34 26.20661 -80.40827 23642 ft 406 kts 318°
2026-05-06 18:34 26.22911 -80.42769 24276 ft 411 kts 327°
2026-05-06 18:34 26.25405 -80.44355 24940 ft 415 kts 332°
2026-05-06 18:35 26.28010 -80.45774 25650 ft 419 kts 334°
2026-05-06 18:35 26.30667 -80.47148 26345 ft 422 kts 334°
2026-05-06 18:35 26.33344 -80.48526 26983 ft 426 kts 334°
2026-05-06 18:35 26.36036 -80.49928 27619 ft 428 kts 333°
2026-05-06 18:36 26.38734 -80.51351 28244 ft 431 kts 333°
2026-05-06 18:36 26.41446 -80.52795 28860 ft 434 kts 333°
2026-05-06 18:36 26.44173 -80.54259 29455 ft 436 kts 333°
2026-05-06 18:36 26.46924 -80.55711 29990 ft 439 kts 335°
2026-05-06 18:37 26.49799 -80.56921 30521 ft 443 kts 339°
2026-05-06 18:37 26.51750 -80.57606 30862 ft 445 kts 341°
2026-05-06 18:37 26.55737 -80.58864 31768 ft 445 kts 342°
2026-05-06 18:37 26.58679 -80.59759 32448 ft 443 kts 342°
2026-05-06 18:38 26.61646 -80.60666 33151 ft 441 kts 341°
2026-05-06 18:38 26.64601 -80.61584 33806 ft 439 kts 341°
2026-05-06 18:38 26.67519 -80.62503 34437 ft 437 kts 341°
2026-05-06 18:38 26.70441 -80.63431 35026 ft 436 kts 340°
2026-05-06 18:39 26.73354 -80.64361 35576 ft 434 kts 340°
2026-05-06 18:39 26.76251 -80.65289 36108 ft 432 kts 340°
2026-05-06 18:39 26.79143 -80.66216 36575 ft 432 kts 340°
2026-05-06 18:40 26.84904 -80.68064 37586 ft 428 kts 340°
2026-05-06 18:40 26.87725 -80.68969 38102 ft 425 kts 340°
2026-05-06 18:40 26.90570 -80.69894 38596 ft 422 kts 339°
2026-05-06 18:40 26.91828 -80.70329 38793 ft 421 kts 338°
2026-05-06 18:41 26.92673 -80.70631 38911 ft 420 kts 338°
2026-05-06 18:41 26.95438 -80.71653 39271 ft 419 kts 337°
2026-05-06 18:41 26.98195 -80.72699 39628 ft 419 kts 336°
2026-05-06 18:41 27.00948 -80.73752 39944 ft 419 kts 336°
2026-05-06 18:42 27.03708 -80.74807 40256 ft 419 kts 336°
2026-05-06 18:42 27.06365 -80.75819 40565 ft 418 kts 336°
2026-05-06 18:42 27.06555 -80.75891 40582 ft 418 kts 336°
2026-05-06 18:42 27.09308 -80.76937 40881 ft 418 kts 336°
2026-05-06 18:43 27.12071 -80.77986 41044 ft 420 kts 336°
2026-05-06 18:43 27.17654 -80.80107 41081 ft 425 kts 336°
2026-05-06 18:44 27.23203 -80.82209 41081 ft 422 kts 336°
2026-05-06 18:44 27.28768 -80.84321 41083 ft 422 kts 336°
2026-05-06 18:45 27.34313 -80.86489 41083 ft 422 kts 335°
2026-05-06 18:45 27.39831 -80.88767 41081 ft 422 kts 335°
2026-05-06 18:46 27.45330 -80.91052 41083 ft 422 kts 335°
2026-05-06 18:46 27.50833 -80.93333 41089 ft 421 kts 335°
2026-05-06 18:47 27.56330 -80.95611 41086 ft 421 kts 335°
2026-05-06 18:47 27.61831 -80.97892 41095 ft 421 kts 334°
2026-05-06 18:48 27.67336 -81.00177 41092 ft 421 kts 334°
2026-05-06 18:48 27.72830 -81.02459 41087 ft 421 kts 334°
2026-05-06 18:49 27.78331 -81.04746 41083 ft 420 kts 334°
2026-05-06 18:49 27.83776 -81.07014 41094 ft 421 kts 334°
2026-05-06 18:50 27.89281 -81.09309 41092 ft 421 kts 334°
2026-05-06 18:50 27.94788 -81.11607 41090 ft 421 kts 334°
2026-05-06 18:51 28.00290 -81.13905 41098 ft 421 kts 334°
2026-05-06 18:51 28.05769 -81.16226 41097 ft 419 kts 332°
2026-05-06 18:52 28.11016 -81.18827 41102 ft 416 kts 330°
2026-05-06 18:52 28.16265 -81.21576 41094 ft 416 kts 329°
2026-05-06 18:53 28.21515 -81.24319 41100 ft 415 kts 329°
2026-05-06 18:53 28.26687 -81.27008 41115 ft 415 kts 330°
2026-05-06 18:54 28.31055 -81.29276 41097 ft 415 kts 330°
2026-05-06 18:54 28.36313 -81.31997 41099 ft 415 kts 330°
2026-05-06 18:55 28.41580 -81.34704 41094 ft 415 kts 330°
2026-05-06 18:55 28.46851 -81.37411 41089 ft 415 kts 330°
2026-05-06 18:56 28.52110 -81.40114 41103 ft 415 kts 330°
2026-05-06 18:56 28.57367 -81.42820 41103 ft 414 kts 330°
2026-05-06 18:57 28.62618 -81.45527 41097 ft 415 kts 330°
2026-05-06 18:57 28.67836 -81.48219 41106 ft 414 kts 330°
2026-05-06 18:58 28.73079 -81.50927 41095 ft 413 kts 329°
2026-05-06 18:58 28.78312 -81.53634 41095 ft 413 kts 329°
2026-05-06 18:59 28.83536 -81.56338 41090 ft 412 kts 329°
2026-05-06 18:59 28.88725 -81.59027 41100 ft 412 kts 329°
2026-05-06 19:00 28.94187 -81.61168 41085 ft 424 kts 343°
2026-05-06 19:00 29.00088 -81.61820 41084 ft 431 kts 348°
2026-05-06 19:01 29.06047 -81.62214 41083 ft 430 kts 348°
2026-05-06 19:01 29.11970 -81.62684 41083 ft 429 kts 347°
2026-05-06 19:02 29.17908 -81.63215 41083 ft 427 kts 347°
2026-05-06 19:02 29.23831 -81.63761 41083 ft 427 kts 347°
2026-05-06 19:03 29.29667 -81.64301 41079 ft 426 kts 347°
2026-05-06 19:03 29.35415 -81.64833 41083 ft 426 kts 346°
2026-05-06 19:04 29.41162 -81.65364 41073 ft 426 kts 346°
2026-05-06 19:04 29.46809 -81.65886 41072 ft 425 kts 346°
2026-05-06 19:05 29.52583 -81.66421 41073 ft 426 kts 346°
2026-05-06 19:05 29.58379 -81.66959 41066 ft 426 kts 346°
2026-05-06 19:06 29.63951 -81.67475 41064 ft 425 kts 346°
2026-05-06 19:06 29.69848 -81.68023 41064 ft 425 kts 346°
2026-05-06 19:07 29.75749 -81.68574 41063 ft 425 kts 346°
2026-05-06 19:07 29.81639 -81.69124 41064 ft 425 kts 346°
2026-05-06 19:08 29.87530 -81.69673 41063 ft 424 kts 346°
2026-05-06 19:08 29.93375 -81.70219 41063 ft 425 kts 346°
2026-05-06 19:09 29.99290 -81.70772 41063 ft 425 kts 346°
2026-05-06 19:09 30.05205 -81.71325 41064 ft 425 kts 346°
2026-05-06 19:10 30.11098 -81.71877 41071 ft 425 kts 346°
2026-05-06 19:10 30.16947 -81.72426 41074 ft 425 kts 346°
2026-05-06 19:11 30.22834 -81.72978 41071 ft 424 kts 346°
2026-05-06 19:11 30.28718 -81.73531 41072 ft 424 kts 346°
2026-05-06 19:12 30.34601 -81.74086 41070 ft 424 kts 346°
2026-05-06 19:12 30.40485 -81.74640 41070 ft 424 kts 346°
2026-05-06 19:13 30.46358 -81.75193 41058 ft 423 kts 346°
2026-05-06 19:13 30.52220 -81.75747 41055 ft 423 kts 345°
2026-05-06 19:14 30.58088 -81.76306 41054 ft 423 kts 345°
2026-05-06 19:14 30.63858 -81.77234 41061 ft 408 kts 334°
2026-05-06 19:15 30.68951 -81.79846 41055 ft 397 kts 324°
2026-05-06 19:15 30.73823 -81.82866 41055 ft 397 kts 324°
2026-05-06 19:16 30.78699 -81.85816 41060 ft 398 kts 325°
2026-05-06 19:16 30.83630 -81.88729 41063 ft 398 kts 325°
2026-05-06 19:17 30.88569 -81.91624 41065 ft 398 kts 325°
2026-05-06 19:17 30.93316 -81.94405 41064 ft 398 kts 325°
2026-05-06 19:18 30.98255 -81.97303 41064 ft 397 kts 325°
2026-05-06 19:18 31.03148 -82.00177 41063 ft 397 kts 325°
2026-05-06 19:19 31.08058 -82.03066 41065 ft 399 kts 325°
2026-05-06 19:19 31.13030 -82.05996 41064 ft 401 kts 324°
2026-05-06 19:20 31.18013 -82.08933 41064 ft 401 kts 324°
2026-05-06 19:20 31.22988 -82.11868 41063 ft 401 kts 324°
2026-05-06 19:21 31.27960 -82.14806 41064 ft 400 kts 324°
2026-05-06 19:21 31.32900 -82.17729 41063 ft 400 kts 324°
2026-05-06 19:22 31.37866 -82.20672 41064 ft 400 kts 324°
2026-05-06 19:22 31.42754 -82.23583 41063 ft 400 kts 324°
2026-05-06 19:23 31.47674 -82.26513 41064 ft 400 kts 324°
2026-05-06 19:23 31.52464 -82.29363 41064 ft 399 kts 324°
2026-05-06 19:24 31.57139 -82.32146 41063 ft 399 kts 324°
2026-05-06 19:24 31.61608 -82.34809 41064 ft 399 kts 324°
2026-05-06 19:25 31.66359 -82.37644 41064 ft 399 kts 324°
2026-05-06 19:25 31.71134 -82.40495 41064 ft 399 kts 324°
2026-05-06 19:26 31.75846 -82.43311 41055 ft 398 kts 324°
2026-05-06 19:26 31.80514 -82.46106 41054 ft 398 kts 324°
2026-05-06 19:27 31.84874 -82.48718 41007 ft 396 kts 324°
2026-05-06 19:27 31.87227 -82.50126 40736 ft 391 kts 324°
2026-05-06 19:27 31.89559 -82.51521 40381 ft 389 kts 324°
2026-05-06 19:27 31.91970 -82.52969 39980 ft 389 kts 324°
2026-05-06 19:28 31.94354 -82.54404 39533 ft 389 kts 324°
2026-05-06 19:28 31.96730 -82.55862 39103 ft 386 kts 321°
2026-05-06 19:28 31.98869 -82.57562 38708 ft 380 kts 315°
2026-05-06 19:28 32.00624 -82.59244 38352 ft 379 kts 313°
2026-05-06 19:29 32.02311 -82.60975 38000 ft 378 kts 312°
2026-05-06 19:29 32.04225 -82.62981 37590 ft 377 kts 312°
2026-05-06 19:29 32.06108 -82.64954 37203 ft 377 kts 312°
2026-05-06 19:29 32.08024 -82.66951 36798 ft 378 kts 312°
2026-05-06 19:30 32.09981 -82.68981 36388 ft 378 kts 312°
2026-05-06 19:30 32.11971 -82.71034 35979 ft 379 kts 313°
2026-05-06 19:30 32.13823 -82.72942 35597 ft 382 kts 313°
2026-05-06 19:30 32.15792 -82.74968 35187 ft 386 kts 313°
2026-05-06 19:31 32.17803 -82.77038 34770 ft 391 kts 313°
2026-05-06 19:31 32.19861 -82.79155 34344 ft 393 kts 313°
2026-05-06 19:31 32.24016 -82.83431 33344 ft 397 kts 314°
2026-05-06 19:32 32.26082 -82.85561 32839 ft 399 kts 314°
2026-05-06 19:32 32.28182 -82.87727 32321 ft 402 kts 314°
2026-05-06 19:32 32.30297 -82.89910 31809 ft 406 kts 314°
2026-05-06 19:32 32.32224 -82.91896 31357 ft 410 kts 314°
2026-05-06 19:33 32.34375 -82.94116 30843 ft 413 kts 314°
2026-05-06 19:33 32.36545 -82.96359 30320 ft 416 kts 314°
2026-05-06 19:33 32.38569 -82.98453 29827 ft 420 kts 315°
2026-05-06 19:33 32.40596 -83.00546 29371 ft 423 kts 315°
2026-05-06 19:34 32.42462 -83.02472 28939 ft 426 kts 315°
2026-05-06 19:34 32.44440 -83.04510 28466 ft 427 kts 315°
2026-05-06 19:34 32.46500 -83.06629 27969 ft 424 kts 315°
2026-05-06 19:34 32.48548 -83.08737 27460 ft 422 kts 315°
2026-05-06 19:35 32.50678 -83.10930 26978 ft 419 kts 315°
2026-05-06 19:35 32.52821 -83.13138 26466 ft 416 kts 315°
2026-05-06 19:35 32.54733 -83.15110 26019 ft 413 kts 315°
2026-05-06 19:35 32.56782 -83.17225 25535 ft 411 kts 315°
2026-05-06 19:36 32.58733 -83.19240 25077 ft 409 kts 314°
2026-05-06 19:36 32.60862 -83.21447 24539 ft 406 kts 314°
2026-05-06 19:36 32.62961 -83.23626 24000 ft 402 kts 314°
2026-05-06 19:36 32.65031 -83.25777 23478 ft 399 kts 314°
2026-05-06 19:37 32.67117 -83.27947 22942 ft 396 kts 314°
2026-05-06 19:37 32.69010 -83.29912 22454 ft 392 kts 314°
2026-05-06 19:37 32.71051 -83.32031 21932 ft 390 kts 314°
2026-05-06 19:37 32.72977 -83.34034 21436 ft 387 kts 314°
2026-05-06 19:38 32.74703 -83.35830 20995 ft 384 kts 314°
2026-05-06 19:38 32.76437 -83.37635 20550 ft 381 kts 314°
2026-05-06 19:38 32.78055 -83.39321 20135 ft 379 kts 314°
2026-05-06 19:38 32.79867 -83.41210 19674 ft 376 kts 313°
2026-05-06 19:39 32.81561 -83.42977 19242 ft 374 kts 313°
2026-05-06 19:39 32.83328 -83.44821 18790 ft 372 kts 313°
2026-05-06 19:39 32.84914 -83.46477 18386 ft 370 kts 313°
2026-05-06 19:39 32.86545 -83.48180 17986 ft 367 kts 313°
2026-05-06 19:40 32.87877 -83.49571 17726 ft 366 kts 313°
2026-05-06 19:40 32.89416 -83.51180 17523 ft 364 kts 313°
2026-05-06 19:40 32.90744 -83.52567 17432 ft 354 kts 313°
2026-05-06 19:40 32.92204 -83.54083 17330 ft 336 kts 313°
2026-05-06 19:41 32.93516 -83.55450 17156 ft 330 kts 313°
2026-05-06 19:41 32.95013 -83.57020 16829 ft 326 kts 312°
2026-05-06 19:41 32.96229 -83.58300 16477 ft 325 kts 312°
2026-05-06 19:41 32.97439 -83.59576 16126 ft 324 kts 312°
2026-05-06 19:42 32.98643 -83.60844 15781 ft 323 kts 312°
2026-05-06 19:42 32.99712 -83.61970 15479 ft 323 kts 312°
2026-05-06 19:42 33.00778 -83.63091 15169 ft 322 kts 312°
2026-05-06 19:42 33.01790 -83.64153 14872 ft 322 kts 312°
2026-05-06 19:43 33.02964 -83.65386 14533 ft 321 kts 313°
2026-05-06 19:43 33.04055 -83.66529 14220 ft 321 kts 312°
2026-05-06 19:43 33.05077 -83.67604 13937 ft 320 kts 312°
2026-05-06 19:43 33.06129 -83.68707 13638 ft 319 kts 312°
2026-05-06 19:44 33.07083 -83.69708 13370 ft 318 kts 312°
2026-05-06 19:44 33.08178 -83.70858 13094 ft 317 kts 312°
2026-05-06 19:44 33.09600 -83.72352 12877 ft 317 kts 312°
2026-05-06 19:44 33.10635 -83.73438 12784 ft 309 kts 312°
2026-05-06 19:45 33.11596 -83.74441 12718 ft 294 kts 312°
2026-05-06 19:45 33.12581 -83.75467 12630 ft 284 kts 311°
2026-05-06 19:45 33.13498 -83.76428 12486 ft 282 kts 311°
2026-05-06 19:45 33.14466 -83.77453 12141 ft 278 kts 311°
2026-05-06 19:46 33.15555 -83.78610 11617 ft 278 kts 311°
2026-05-06 19:46 33.16859 -83.80002 11040 ft 277 kts 311°
2026-05-06 19:46 33.18295 -83.81535 10391 ft 277 kts 312°
2026-05-06 19:46 33.19436 -83.82780 9849 ft 276 kts 311°
2026-05-06 19:47 33.20793 -83.84361 9192 ft 277 kts 310°
2026-05-06 19:47 33.21828 -83.85595 8763 ft 275 kts 310°
2026-05-06 19:47 33.23135 -83.87155 8403 ft 274 kts 310°
2026-05-06 19:47 33.24464 -83.88738 8090 ft 275 kts 310°
2026-05-06 19:48 33.25763 -83.90297 8018 ft 275 kts 310°
2026-05-06 19:48 33.27103 -83.91911 8010 ft 275 kts 310°
2026-05-06 19:48 33.28179 -83.93201 8009 ft 275 kts 310°
2026-05-06 19:48 33.29449 -83.94717 8008 ft 276 kts 311°
2026-05-06 19:49 33.30804 -83.96348 8004 ft 276 kts 311°
2026-05-06 19:49 33.32159 -83.97977 8005 ft 275 kts 310°
2026-05-06 19:49 33.33515 -83.99613 8009 ft 278 kts 311°
2026-05-06 19:49 33.34903 -84.01226 8007 ft 277 kts 314°
2026-05-06 19:50 33.36530 -84.02501 7990 ft 285 kts 334°
2026-05-06 19:50 33.38494 -84.03003 8009 ft 293 kts 351°
2026-05-06 19:50 33.40516 -84.03262 7972 ft 290 kts 348°
2026-05-06 19:50 33.42512 -84.03595 7359 ft 290 kts 347°
2026-05-06 19:51 33.44484 -84.03943 6978 ft 284 kts 347°
2026-05-06 19:51 33.46461 -84.04289 6602 ft 288 kts 347°
2026-05-06 19:51 33.48414 -84.04622 6234 ft 280 kts 347°
2026-05-06 19:51 33.50307 -84.04939 6025 ft 266 kts 347°
2026-05-06 19:52 33.52056 -84.05225 5989 ft 249 kts 347°
2026-05-06 19:52 33.53785 -84.05513 5992 ft 252 kts 347°
2026-05-06 19:52 33.55520 -84.05797 5988 ft 251 kts 347°
2026-05-06 19:52 33.57256 -84.06084 5983 ft 251 kts 347°
2026-05-06 19:53 33.58983 -84.06374 5987 ft 250 kts 346°
2026-05-06 19:53 33.60648 -84.06892 5978 ft 244 kts 330°
2026-05-06 19:53 33.62014 -84.08000 5983 ft 235 kts 308°
2026-05-06 19:53 33.62824 -84.09642 5976 ft 226 kts 280°
2026-05-06 19:54 33.63009 -84.11509 5843 ft 228 kts 271°
2026-05-06 19:54 33.63103 -84.13394 5560 ft 222 kts 270°
2026-05-06 19:54 33.63171 -84.15174 5278 ft 207 kts 269°
2026-05-06 19:54 33.63181 -84.16897 5006 ft 206 kts 267°
2026-05-06 19:55 33.63175 -84.18607 4740 ft 205 kts 267°
2026-05-06 19:55 33.63175 -84.20292 4475 ft 193 kts 267°
2026-05-06 19:55 33.63182 -84.21795 4215 ft 176 kts 266°
2026-05-06 19:55 33.63177 -84.23371 4005 ft 190 kts 266°
2026-05-06 19:56 33.63176 -84.24969 3747 ft 192 kts 267°
2026-05-06 19:56 33.63177 -84.26572 3488 ft 192 kts 267°
2026-05-06 19:56 33.63171 -84.28177 3236 ft 192 kts 267°
2026-05-06 19:56 33.63174 -84.29744 2973 ft 178 kts 267°
2026-05-06 19:57 33.63180 -84.31100 2714 ft 149 kts 266°
2026-05-06 19:57 33.63183 -84.32277 2504 ft 138 kts 264°
2026-05-06 19:57 33.63181 -84.33436 2362 ft 139 kts 265°
2026-05-06 19:57 33.63175 -84.34605 2211 ft 142 kts 264°
2026-05-06 19:58 33.63176 -84.35789 2042 ft 142 kts 265°
2026-05-06 19:58 33.63182 -84.36958 1843 ft 139 kts 266°
2026-05-06 19:58 33.63187 -84.38124 1699 ft 142 kts 265°
2026-05-06 19:58 33.63173 -84.39298 1478 ft 141 kts 265°
2026-05-06 19:59 33.63180 -84.40469 1309 ft 140 kts 268°
2026-05-06 19:59 33.63184 -84.41628 1116 ft 139 kts 266°
2026-05-06 19:59 33.63180 -84.42729 1043 ft 118 kts 270°
2026-05-06 19:59 33.63183 -84.43510 1044 ft 73 kts 270°
2026-05-06 20:00 33.63185 -84.43978 1041 ft 43 kts 275°
2026-05-06 20:00 33.63248 -84.44207 1042 ft 23 kts 296°
2026-05-06 20:00 33.63319 -84.44357 1042 ft 20 kts 300°
2026-05-06 20:00 33.63352 -84.44487 1043 ft 12 kts 274°
2026-05-06 20:01 33.63358 -84.44582 1043 ft 11 kts 275°
2026-05-06 20:01 33.63360 -84.44671 1043 ft 10 kts 270°
2026-05-06 20:01 33.63361 -84.44758 1043 ft 11 kts 270°
2026-05-06 20:01 33.63362 -84.44857 1043 ft 13 kts 270°
2026-05-06 20:02 33.63349 -84.44966 1043 ft 14 kts 258°
2026-05-06 20:02 33.63326 -84.45087 1043 ft 15 kts 260°
2026-05-06 20:02 33.63320 -84.45221 1043 ft 16 kts 272°
2026-05-06 20:02 33.63386 -84.45292 1043 ft 13 kts 353°
2026-05-06 20:03 33.63479 -84.45295 1043 ft 14 kts 359°
2026-05-06 20:03 33.63575 -84.45293 1043 ft 13 kts 12°
2026-05-06 20:03 33.63622 -84.45218 1043 ft 11 kts 82°
2026-05-06 20:03 33.63623 -84.45122 1043 ft 12 kts 89°
2026-05-06 20:04 33.63624 -84.45022 1043 ft 12 kts 89°
2026-05-06 20:04 33.63635 -84.44919 1042 ft 13 kts 78°
2026-05-06 20:04 33.63653 -84.44815 1042 ft 13 kts 77°
2026-05-06 20:04 33.63664 -84.44706 1043 ft 13 kts 89°
2026-05-06 20:05 33.63664 -84.44598 1043 ft 13 kts 90°
2026-05-06 20:05 33.63664 -84.44486 1043 ft 14 kts 90°
2026-05-06 20:05 33.63665 -84.44370 1043 ft 14 kts 90°
2026-05-06 20:05 33.63664 -84.44254 1043 ft 14 kts 90°
2026-05-06 20:06 33.63666 -84.44147 1043 ft 8 kts 77°
2026-05-06 20:06 33.63680 -84.44129 1044 ft 3 kts 36°
2026-05-06 20:06 33.63724 -84.44118 1043 ft 12 kts
2026-05-06 20:06 33.63781 -84.44118 1043 ft 12 kts 360°
2026-05-06 20:07 33.63870 -84.44118 1043 ft 13 kts 360°
2026-05-06 20:07 33.63940 -84.44113 1043 ft 4 kts 23°
2026-05-06 20:07 33.63949 -84.44095 1043 ft 2 kts 63°
2026-05-06 20:07 33.63949 -84.44078 1043 ft 2 kts 92°
2026-05-06 20:08 33.63949 -84.44050 1043 ft 5 kts 91°
2026-05-06 20:08 33.63949 -84.44001 1043 ft 3 kts 90°
2026-05-06 20:08 33.63948 -84.43979 1043 ft 1 kts 90°
2026-05-06 20:08 33.63948 -84.43975 1044 ft 0 kts 90°